THOR ABLESTAR DEB, 648

Orbit data source: Space-Track

THOR ABLESTAR DEB, 648 is space debris in LEO originally from a launch on Thu, 29 Jun 1961 UTC launched from the Air Force Eastern Test Range (AFETR). Debris objects in space refer to the collection of defunct objects orbiting the Earth. Examples of debris include non-operational satellites, rocket bodies, and fragments generated from explosions, collisions, or faulty payload assembly.

Loading next visibility...
Identifier
648, 1961-015GZ
Orbit
LEO
Country
Flag of USUS
Related business
Manufacturer
Unknown
Mission
Spacecraft
Bus & Motor
Unknown
Mass
Unknown
Launch date (UTC)
1961-06-29 (65 years ago)
Launch vehicle
Unknown
Launch site
Air Force Eastern Test Range (AFETR)
Object type
Payload
Rocket body
Debris
Shape & HBR
Unknown shape, 0.1 m
Radar Cross Section
Small (<0.1 m²)

Expand to show TLE details & history
Last TLE update: 18 hours ago

TLE from 18 hours ago
0 THOR ABLESTAR DEB
1 00648U 61015GZ  26062.15818355  .00000292  00000-0  43354-3 0  9998
2 00648  65.8725 285.7625 0206159 275.9843 168.9468 13.59531450184561
Epoch: 2026-03-03T03:47Z
TLE epoch observation values (Epoch: 2026-03-03T03:47:47.058Z)
Latitude
65.56716°
Longitude
146.66285°
Altitude
1,197.983 km
Speed
7.187 km/s
True Right ascension
00h 18m 12s
True Declination
65° 26' 42"
Sunlit
Object was in daylight at epoch
Visualization orbit readout
Latitude
Unknown
Longitude
Unknown
Altitude
Unknown
Speed
Unknown
Apparent Right ascension
Unknown
Apparent Declination
Unknown
Sunlit
N/A
Visualization observer readout
Local Sidereal Time
02:00:48
Azimuth
Unknown
Elevation
Unknown
Doppler factor
Unknown
Orbital elements
Apogee altitude
1,188.766 km
Perigee altitude
883.071 km
Semi-major axis
7,414.055 km
Eccentricity
0.02062
Inclination
65.8725°
RAAN
285.7625°
Arg. of periapsis
275.9843°
True anomaly
169.38853°
Mean anomaly
168.9468°
Eccentric anomaly
169.16877°
Mean motion
3.39985 °/min
Orbital period
105.89 mins
BSTAR
0.00043354
Loading maneuver chart data...
Computing Atmospheric mass density...

Documentation

Showing up to 5 results
|